Showing default

GOSAT-GW, 64694

Orbit data source: Space-Track

GOSAT-GW, 64694 is a payload satellite owned by JAXA (JP) in SSO that was launched on Sat, 28 Jun 2025 UTC via an H-IIA 202 launch vehicle from the Tanegashima Space Center (TNSTA). Payload-class satellites include a variety of spacecraft equipped with specific instruments for various scientific and technological missions. These include communications satellites like Starlink; space stations such as the ISS; scientific satellites like the Hubble; Earth observation satellites from companies like Planet Labs, Umbra, and HawkEye 360; GPS; miniature CubeSats for education and research; and military/defense satellites.

Loading next visibility...
Identifier
64694, 2025-140A
Orbit
SSO
Last TLE update
10 hours ago
Origin
Flag of JPJAXA (JP / JPN)
Manufacturer
MELCO
Mission
Operational spacecraft
Bus & Motor
GOSAT, AOCS
Mass
2,900 kg wet, ~2,900 kg dry
Launch date (UTC)
2025-06-28 (3 days ago)
Launch vehicle
H-IIA 202
Launch site
Tanegashima Space Center (TNSTA)
Object type
Payload
Rocket body
Debris
Shape & HBR
Unknown
Radar Cross Section
RCS unknown

Expand to show TLE details & history

TLE from 10 hours ago
0 GOSAT-GW
1 64694U 25141A   25181.91666657  .00000441  00000-0  85264-4 0  9993
2 64694  98.0587 120.5990 0000756  21.0656 339.0580 14.68034178   327
Epoch: 2025-06-30T21:59Z
TLE epoch observation values (Epoch: 2025-06-30T21:59:59.991Z)
Latitude
-0.00003°
Longitude
-128.62056°
Altitude
669.854 km
Speed
7.522 km/s
True Right ascension
08h 02m 23s
True Declination
0° 00' 00"
Sunlit
Object was in daylight at epoch
Visualization orbit readout
Latitude
66.79239°
Longitude
70.97717°
Altitude
678.912 km
Speed
7.523 km/s
Apparent Right ascension
06h 23m 57s
Apparent Declination
43° 45' 52"
Sunlit
Object is in daylight
Visualization observer readout
Local Sidereal Time
19:57:28
Azimuth
16.691° NNE
Elevation
-3.703°
Doppler factor
1
Orbital elements
Apogee altitude
664.947 km
Perigee altitude
663.882 km
Semi-major axis
7,042.552 km
Eccentricity
0.00008
Inclination
98.0587°
RAAN
120.599°
Arg. of periapsis
21.0656°
True anomaly
Unknown
Mean anomaly
339.058°
Eccentric anomaly
Unknown
Mean motion
3.67238 °/min
Orbital period
98.03 mins
BSTAR
0.000085264
Loading maneuver chart data...
Loading SW <> Apogee altitude chart data...
Loading historical data...
Loading historical data...
Loading historical data...
Loading historical data...
Loading historical data...
Loading historical data...
Loading historical data...
Other satellites on launch #140 in the year 2025 (2025-06-28 UTC)

GOSAT-GW Visibility forecast

Observer location: undefined°, undefined°

Span
Click to sort rows by Start time (UTC) header in descending order
Start Az.
Max El. time (UTC)
Max El. Az.
Max El.
End time (UTC)
End Az.
8 mins2025-07-01 08:23:22.504Z27.593° NE2025-07-01 08:27:22.504Z107.305° ESE35.92°2025-07-01 08:31:22.504Z172.713° S
4 mins2025-07-01 10:02:22.504Z318.152° NNW2025-07-01 10:03:22.504Z302.926° NW16.165°2025-07-01 10:06:22.504Z259.055° W
7 mins2025-07-01 19:24:22.504Z133.577° SE2025-07-01 19:27:22.504Z71.331° E33.335°2025-07-01 19:31:22.504Z3.264° NNE
4 mins2025-07-01 21:03:22.504Z247.245° WSW2025-07-01 21:04:22.504Z263.578° W17.189°2025-07-01 21:07:22.504Z307.269° NW
|